Location: ????
(33.1659°N, 35.6604°E)
Time: 05:02:12
(UTC+00:00)

Cosmos 2154 Rocket - Pass Details

Date: 20 September 2019
Orbit: 965 x 997 km, 82.9° (Epoch: 16 October)

Event Time Altitude Azimuth Distance (km) Brightness Sun altitude
Rises 16:11:20 0° 2° (N) 3,658 7.1 -7.9°
Reaches altitude 10° 16:14:01 10° 10° (N) 2,708 6.3 -8.5°
Maximum altitude 16:19:49 41° 79° (E) 1,373 4.4 -9.7°
Drops below altitude 10° 16:25:36 10° 149° (SSE) 2,705 6.0 -10.9°
Sets 16:28:15 0° 156° (SSE) 3,653 6.7 -11.4°
